Regional Weather Roundup
Issued by NWS Bismarck, ND

Home | Current Version | Previous Version | Text Only | Print | Product List | Glossary On
Versions: 1 2 3 4 5 6 7 8 9 10 11 12 13 14 15 16 17 18 19 20 21 22 23 24 25 26 27 28 29 30 31 32 33 34 35 36 37 38 39 40 41 42 43 44 45 46 47 48 49 50
000
ASUS43 KBIS 232302
RWRBIS

NWR BROADCAST TEXT
NATIONAL WEATHER SERVICE BISMARCK ND
500 PM CST TUE JAN 23 2018

NOTE: "FAIR" INDICATES FEW OR NO CLOUDS BELOW 12,000 FEET WITH NO
SIGNIFICANT WEATHER AND/OR OBSTRUCTIONS TO VISIBILITY.


CITY           SKY/WX    TMP DP  RH WIND       PRES   REMARKS
WILLISTON      FAIR      27  20  75 SW7       30.11S WCI  19
MINOT          CLOUDY    23  18  81 W8        30.11R WCI  14
MINOT AFB      CLOUDY    21  19  90 NW5       30.10R WCI  15
BISMARCK       FAIR      32  21  64 NW7       30.13R
DICKINSON      FAIR      32  22  66 W10       30.08R
GARRISON         N/A     21  16  81 N3        30.11R
HETTINGER ARPT CLEAR     33  21  61 W16       30.13R
JAMESTOWN      CLOUDY    20  18  92 N16       30.11R WCI   6
CARRINGTON     CLOUDY    19  18  93 NW14G23   30.13R WCI   6
HAZEN            N/A     27  21  80 NE5       30.14R
LINTON           N/A     32  27  80 NW8       30.13R
MANDAN         FAIR      30  23  74 N6        30.11S
OAKES            N/A     28  23  80 NW7       30.11R
RUGBY          CLOUDY    21  21 100 W9        30.10R WCI  11
STANLEY        FAIR      21  19  93 W5        30.11R FOG     WCI  15
TIOGA          FAIR      21  19  93 SW6       30.10S WCI  14
WATFORD CITY   FAIR      32  23  69 W6        30.11S
$$

CITY           SKY/WX    TMP DP  RH WIND       PRES   REMARKS
GRAND FORKS    FLURRIES  23  21  92 S7        30.11R WCI  15
GRAND FORKS AF CLOUDY    23  21  89 CALM      30.10R
DEVILS LAKE    CLOUDY    20  19  96 NW12      30.10R WCI   8
FARGO          CLOUDY    23  20  88 SW6       30.13R WCI  16
CANDO          CLOUDY    23  23 100 NW15G22   30.10S WCI  10
CAVALIER         N/A     23  21  93 NW8       30.09R WCI  14
GRAFTON          N/A     23  21  93 W6        30.12R FOG     WCI  16
GWINNER          N/A     25  21  86 CALM      30.11R
LANGDON        CLOUDY    21  21 100 W10       30.05R WCI  10
ROLLA          CLOUDY    21  21 100 NW15      30.06S WCI   8
WALHALLA       FAIR      23  23 100 W7G13     30.09R WCI  15
$$

CITY           SKY/WX    TMP DP  RH WIND       PRES   REMARKS
ABERDEEN       MOCLDY    33  24  69 NW6       30.11R
MOBRIDGE       CLEAR     40  25  55 N7        30.09R
BUFFALO          N/A     35  23  61 W13       30.08R
RAPID CITY     CLEAR     39  17  41 N14       30.16R
GLASGOW        CLEAR     25  17  72 CALM      30.11R
SIDNEY         CLEAR     32  22  66 W10       30.12S
WOLF POINT     CLEAR     24  16  71 SW10      30.12S WCI  14
GLENDIVE       CLEAR     32  22  66 W8        30.13S
MILES CITY     CLEAR     31  22  69 W9        30.15R
BAKER          CLEAR     32  22  66 W12       30.14R
$$

CITY           SKY/WX    TMP DP  RH WIND       PRES   REMARKS
BILLINGS       PTCLDY    37  16  42 SW10      30.13F
GREAT FALLS    CLEAR     36  15  42 SW23G31   30.04F
$$




USA.gov is the U.S. government's official web portal to all federal, state and local government web resources and services.